Liberia, Costa Rica

3:01 AM CST on February 26, 2017 (GMT -0600)
Daniel Oduber Quiros International

Weather History for MRLB - January, 2013

Change the Weather History Date:

Tuesday, January 8, 2013

  Actual Average Record
Temperature  
Mean Temperature 84 °F -  
Max Temperature 94 °F 89 °F 94 °F (2013)
Min Temperature 73 °F 73 °F 67 °F (2016)
Cooling Degree Days 18    
Growing Degree Days 34 (Base 50)    
Moisture  
Dew Point 64 °F    
Average Humidity 48    
Maximum Humidity 73    
Minimum Humidity 23    
Precipitation  
Precipitation 0.00 in - - ()
Sea Level Pressure  
Sea Level Pressure 29.75 in    
Wind  
Wind Speed 10 mph ()    
Max Wind Speed 18 mph    
Max Gust Speed -    
Visibility 8.1 miles    
Events      
Averages and records for this station are not official NWS values.
T = Trace of Precipitation, MM = Missing Value Source: Averaged Metar Reports

Daily Weather History Graph

Daily Weather History Graph

Search for Another Location

Airport or City:

Trip Planner

Search our weather history database for the weather conditions in past years. The results will help you decide how hot, cold, wet, or windy it might be!

Date:

Astronomy

Jan. 08, 2013 Rise Set
Actual Time 6:02 AM CST 5:35 PM CST
Civil Twilight 5:40 AM CST 5:58 PM CST
Nautical Twilight 5:13 AM CST 6:24 PM CST
Astronomical Twilight 4:47 AM CST 6:50 PM CST
Moon 2:38 AM CST (1/8) 2:35 PM CST (1/8)
Length of Visible Light 12h 17m
Length of Day
11h 32m
Waning Crescent, 13% of the Moon is Illuminated
Jan 8
Waning Crescent
Jan 11
New
Jan 18
First Quarter
Jan 26
Full
Feb 3
Last Quarter

Hourly Weather History & Observations

Time (CST) Temp. Heat Index Dew Point Humidity Pressure Visibility Wind Dir Wind Speed Gust Speed Precip Events Conditions
6:00 AM 74 °F - 65 °F 67% 29.75 in 12 mi SE 5.8 mph - -   Clear
6:00 AM 73.4 °F - 64.4 °F 73% 29.74 in - SE 5.8 mph - N/A   Clear
7:00 AM 77.0 °F - 66.2 °F 69% 29.78 in - East 8.1 mph - N/A   Clear
8:00 AM 84.2 °F 86.6 °F 66.2 °F 55% 29.80 in 6.2 mi East 11.5 mph - N/A   Partly Cloudy
9:00 AM 87 °F - 65 °F 38% 29.83 in 12 mi ENE 11.5 mph - -   Scattered Clouds
9:00 AM 87.8 °F 89.4 °F 64.4 °F 46% 29.82 in 6.2 mi ENE 11.5 mph - N/A   Partly Cloudy
10:00 AM 86.0 °F 88.2 °F 66.2 °F 51% 29.83 in 6.2 mi NE 15.0 mph - N/A   Scattered Clouds
11:00 AM 87.8 °F 89.4 °F 64.4 °F 46% 29.79 in 6.2 mi ENE 15.0 mph - N/A   Scattered Clouds
12:00 PM 91 °F - 64 °F 31% 29.77 in 12 mi NE 18.4 mph - -   Scattered Clouds
12:00 PM 91.4 °F 93.2 °F 64.4 °F 41% 29.75 in 6.2 mi NE 18.4 mph - N/A   Partly Cloudy
1:00 PM 91.4 °F 92.1 °F 62.6 °F 38% 29.72 in 6.2 mi NE 17.3 mph - N/A   Partly Cloudy
2:00 PM 93.2 °F 94.1 °F 62.6 °F 36% 29.70 in 6.2 mi ENE 15.0 mph - N/A   Partly Cloudy
3:00 PM 93 °F - 60 °F 23% 29.71 in 12 mi NE 1.2 mph - -   Scattered Clouds
3:00 PM 93.2 °F 93.3 °F 60.8 °F 34% 29.70 in 6.2 mi NE 18.4 mph - N/A   Partly Cloudy
4:00 PM 91.4 °F 91.4 °F 60.8 °F 36% 29.70 in 6.2 mi ENE 15.0 mph - N/A   Partly Cloudy
5:00 PM 87.8 °F 89.4 °F 64.4 °F 46% 29.71 in 6.2 mi ENE 15.0 mph - N/A   Partly Cloudy
6:00 PM 84 °F - 68 °F 50% 29.74 in 12 mi ENE 17.3 mph - -  
6:00 PM 84.2 °F 87.3 °F 68.0 °F 58% 29.72 in - ENE 17.3 mph - N/A   Clear
7:00 PM 82.4 °F 83.9 °F 64.4 °F 54% 29.75 in - ENE 17.3 mph - N/A   Clear
8:00 PM 80.6 °F 82.7 °F 66.2 °F 61% 29.77 in - ENE 16.1 mph - N/A   Clear